Home > Weather > Alexandria > Past weeks

Flag for U.S.A. Weather for the Past 2 Weeks in Alexandria, Virginia, U.S.A.

Now
37 °F

Light rain. Fog.


Feels Like: 37 °F
Forecast: 33 / 40 °F
Wind: No wind

Location: Reagan National Airport

Current Time: Feb 9, 2016 at 12:05:31 PM

Latest Report: Feb 9, 2016 at 10:52 AM


Visibility: 6 mi

Pressure: 29.58 "Hg

Humidity: 93%

Dew point: 35 °F

Location of AlexandriaLocation

Historic Weather in Alexandria — Graph

°F

Alexandria Temperature Yesterday

Maximum temperature yesterday: 46 °F (at 1:52 PM)
Minimum temperature yesterday: 35 °F (at 5:52 AM)
Average temperature yesterday: 41 °F

High & Low Weather Summary for the Past Weeks

 TemperatureHumidityPressure
High60 °F (Feb 1, 12:52 PM)100% (Feb 3, 4:52 PM)30.48 "Hg (Feb 3, 4:52 PM)
Low25 °F (Jan 28, 3:52 AM)37% (Feb 7, 2:52 PM)29.56 "Hg (Jan 29, 4:52 AM)
Average41 °F65%30.03 "Hg
* Reported Jan 25 10:52 AM — Feb 9 10:52 AM, Alexandria, Weather by CustomWeather, © 2016

Note: Actual official high and low records may vary slightly from our data, if they occured in-between our weather recording intervals... More about our weather records

Advertising

Alexandria Weather History for the Previous 24 Hours

 ConditionsComfort  
Time TempWeatherWind HumidityBarometerVisibility
10:52 AM
Tue, Feb 9
37 °FLight rain. Fog.No wind93%29.58 "Hg6 mi
9:52 AM37 °FLight rain. Fog.No wind89%29.59 "Hg6 mi
8:52 AM36 °FLight rain. Fog.No wind92%29.59 "Hg6 mi
7:52 AM36 °FLight rain. Fog.No wind92%29.59 "Hg3 mi
6:58 AM36 °FLight rain. Fog.5 mph92%29.59 "Hg5 mi
5:52 AM36 °FLight rain. Fog.5 mph92%29.58 "Hg4 mi
4:52 AM37 °FLight rain. Fog.6 mph93%29.58 "Hg4 mi
3:52 AM38 °FLight rain. Overcast.8 mph86%29.58 "Hg10 mi
2:52 AM38 °FLight rain. Overcast.8 mph86%29.59 "Hg10 mi
1:52 AM38 °FLight rain. Overcast.7 mph86%29.62 "Hg10 mi
12:52 AM38 °FLight rain. Mostly cloudy.7 mph86%29.64 "Hg10 mi
11:52 PM
Mon, Feb 8
39 °FOvercast.7 mph82%29.66 "Hg10 mi
10:52 PM39 °FLight rain. Mostly cloudy.7 mph82%29.68 "Hg10 mi
9:52 PM39 °FLight rain. Overcast.6 mph82%29.70 "Hg10 mi
8:52 PM40 °FOvercast.8 mph77%29.70 "Hg10 mi
7:52 PM41 °FLight rain. Overcast.14 mph74%29.72 "Hg10 mi
6:52 PM43 °FOvercast.9 mph62%29.72 "Hg10 mi
5:52 PM43 °FOvercast.12 mph62%29.70 "Hg10 mi
4:52 PM45 °FOvercast.6 mph53%29.69 "Hg10 mi
3:52 PM46 °FOvercast.8 mph51%29.69 "Hg10 mi
2:52 PM46 °FCloudy.5 mph51%29.70 "Hg10 mi
1:52 PM46 °FMore clouds than sun.7 mph51%29.70 "Hg10 mi
12:52 PM45 °FPartly sunny.3 mph53%29.72 "Hg10 mi
Weather by CustomWeather, © 2016

See weather overviewHow to use our weather pages